Preview of NWS' New Version of Forecast
This preview is not operational and should not be used for support decisions.

Regional Weather Roundup (RWR)

Issued by National Weather Service (NWS)

                            
000
ASUS45 KABQ 221410
RWRNM 
NEW MEXICO REGIONAL WEATHER ROUNDUP
NATIONAL WEATHER SERVICE ALBUQUERQUE NM
800 AM MDT MON APR 22 2019

NOTE: "FAIR" MEANS FEW OR NO CLOUDS BELOW 12,000 FEET AGL WITH NO
       SIGNIFICANT WEATHER OR OBSTRUCTIONS TO VISION.

      THIS PRODUCT IS RELEASED AS TWO VERSIONS.  ONE VERSION NEAR
      THE TOP OF THE HOUR CONTAINING PRELIMINARY DATA FROM ALBUQUERQUE
      AND OTHER STATIONS.  A FINAL VERSION WITH ADDITIONAL DATA IS 
      ISSUED ABOUT 10 MINUTES AFTER THE HOUR.
 
NMZ501-503-504-510>518-221500-
NORTHWEST PLATEAU/NORTHCENTRAL MOUNTAINS
  
CITY           SKY/WX    TMP DP  RH WIND       PRES   REMARKS
FARMINGTON     FAIR      48  24  39 E7        30.07R                  
LOS ALAMOS       N/A     54  19  25 CALM      30.15R                  
SANTA FE       FAIR      50  25  37 S6        30.12R                  
TAOS           FAIR      48  23  37 CALM      30.17R                  
ANGEL FIRE       N/A     36  29  77 CALM      30.22S                  

$$
NMZ402-403-502-505>509-221500-
WESTCENTRAL MOUNTAINS/SOUTHWEST MOUNTAINS
  
CITY           SKY/WX    TMP DP  RH WIND       PRES   REMARKS
GALLUP         FAIR      33  21  61 CALM      30.11R                  
GRANTS         FAIR      41  23  49 NW6       30.14R                  
SILVER CITY    FAIR      51  28  40 N3        30.07R                  

$$
NMZ407-409-411-412-221500-
SOUTHERN DESERTS
  
CITY           SKY/WX    TMP DP  RH WIND       PRES   REMARKS
DEMING         FAIR      56  30  37 W5        30.03R                  
LAS CRUCES     FAIR      58  27  30 W3        30.04R                  
HOLLOMAN AFB   FAIR      60  33  36 SE5       30.02R                  
ALAMOGORDO     FAIR      59  32  36 CALM      30.01R                  
T OR C         FAIR      57  24  28 N3        30.04R                  

$$
NMZ519>523-221500-
CENTRAL VALLEYS/CENTRAL HIGHLANDS
  
CITY           SKY/WX    TMP DP  RH WIND       PRES   REMARKS
ALBUQUERQUE    FAIR      57  26  30 NE5       30.08R                  
DOUBLE EAGLE   MOSUNNY   50  27  40 NE6       30.10R                  
MORIARTY ARPT  FAIR      49  31  51 SW3       30.16R                  
CLINES CORNERS PTSUNNY   46  30  53 E12       30.18R                  
BELEN          FAIR      55  28  35 N5        30.08R                  
SOCORRO        FAIR      53  28  38 W5        30.06R                  

$$
NMZ524>526-539-540-221500-
SOUTHCENTRAL MOUNTAINS
  
CITY           SKY/WX    TMP DP  RH WIND       PRES   REMARKS
RUIDOSO        FAIR      52  19  28 NW6       30.15R                  

$$
NMZ527>531-221500-
NORTHEAST HIGHLANDS/NORTHEAST PLAINS
  
CITY           SKY/WX    TMP DP  RH WIND       PRES   REMARKS
LAS VEGAS      FAIR      50  32  50 CALM      30.18R                  
RATON          FAIR      47  38  71 N15       30.17R                  
CLAYTON        FAIR      50  41  71 N24       30.14R                  

$$
NMZ532>537-221500-
EASTCENTRAL PLAINS
  
CITY           SKY/WX    TMP DP  RH WIND       PRES   REMARKS
SANTA ROSA     FAIR      53  40  63 NE17G24   30.11R                  
TUCUMCARI      FAIR      53  44  71 NE13      30.11R                  
CANNON AFB     FAIR      51  44  78 NE22      30.09R                  
CLOVIS AIRPORT FAIR      50  44  80 N24G30    30.09R                  

$$
NMZ028-029-538-221500-
SOUTHEAST PLAINS
  
CITY           SKY/WX    TMP DP  RH WIND       PRES   REMARKS
ROSWELL        FAIR      57  36  45 N18       30.01R                  
ARTESIA        FAIR      61  27  27 N18       29.99R                  
CARLSBAD       FAIR      64  53  67 CALM      29.95R                  
HOBBS          SUNNY     59  54  82 SE3       29.99R                  


$$